This is the latest recevied weather packets stored in our database for station/object SR3WXA. If no packets are shown the sender has not sent any weather packets the latest 1 day(s).
| Time | Temp. | Humidity | Pressure | Rain* | Wind** | Luminosity | Snow |
|---|---|---|---|---|---|---|---|
| 1777982543 | 21.11° C | 62% | 1008.8 hPa | 0 mm | 0 m/s | 404 W/m² | - |
| 1777982282 | 21.11° C | 62% | 1008.7 hPa | 0 mm | 0 m/s | 408 W/m² | - |
| 1777982243 | 21.11° C | 62% | 1008.7 hPa | 0 mm | 0 m/s | 408 W/m² | - |
| 1777981997 | 21.11° C | 62% | 1008.7 hPa | 0 mm | 0 m/s | 476 W/m² | - |
| 1777981943 | 21.11° C | 62% | 1008.7 hPa | 0 mm | 0 m/s | 476 W/m² | - |
| 1777981329 | 21.11° C | 63% | 1008.7 hPa | 0 mm | 0 m/s | 548 W/m² | - |
| 1777981076 | 21.11° C | 63% | 1008.8 hPa | 0 mm | 0 m/s | 902 W/m² | - |
| 1777981029 | 21.11° C | 63% | 1008.8 hPa | 0 mm | 0 m/s | 902 W/m² | - |
| 1777980729 | 21.11° C | 62% | 1008.8 hPa | 0 mm | 0 m/s | 603 W/m² | - |
| 1777980460 | 21.11° C | 62% | 1008.8 hPa | 0 mm | 0 m/s | 594 W/m² | - |
| 1777980429 | 21.11° C | 62% | 1008.8 hPa | 0 mm | 0 m/s | 594 W/m² | - |
| 1777979935 | 21.11° C | 62% | 1009 hPa | 0 mm | 0 m/s | 499 W/m² | - |
| 1777979829 | 21.11° C | 62% | 1009 hPa | 0 mm | 0 m/s | 499 W/m² | - |
| 1777979566 | 20.56° C | 62% | 1009.1 hPa | 0 mm | 0 m/s | 529 W/m² | - |
| 1777979529 | 20.56° C | 62% | 1009.1 hPa | 0 mm | 0 m/s | 529 W/m² | - |
| 1777979229 | 20.56° C | 63% | 1009.1 hPa | 0 mm | 0 m/s | 473 W/m² | - |
| 1777978929 | 20.56° C | 64% | 1009.1 hPa | 0 mm | 0 m/s | 557 W/m² | - |
| 1777978572 | 20.56° C | 64% | 1009.3 hPa | 0 mm | 0 m/s | 448 W/m² | - |
| 1777978538 | 20.56° C | 64% | 1009.3 hPa | 0 mm | 0 m/s | 448 W/m² | - |
| 1777978276 | 20° C | 65% | 1009.3 hPa | 0 mm | 0 m/s | 443 W/m² | - |
| 1777978248 | 20° C | - | - | 0 mm | 0 m/s | - | - |
| 1777978238 | 20° C | 65% | 1009.3 hPa | 0 mm | 0 m/s | 443 W/m² | - |
| 1777977938 | 20° C | 65% | 1009.4 hPa | 0 mm | 0 m/s | 464 W/m² | - |
| 1777977683 | 20° C | 64% | 1009.4 hPa | 0 mm | 0 m/s | 318 W/m² | - |
| 1777977639 | 20° C | 64% | 1009.4 hPa | 0 mm | 0 m/s | 318 W/m² | - |
* Rain latest hour (hover to see other rain measurements)
** Current wind speed in m/s (hover to see current wind gust speed)